User: anonymous   Login
Location: Aiyekoto
(8.4333°N, 4.3667°E)
Time: 11:23:03
(UTC+00:00)
Language:

PAYLOAD A - Orbit

View from above orbital plane
View from above orbital plane
View from above satellite
View from above satellite

Ground track
Ground track

The orbit data is extracted from the following two-line orbital elements,

1 27840U 03031A   20226.85808093 -.00000020 +00000-0 +77561-5 0  9995
2 27840 098.3258 196.8614 0097043 246.1999 112.8992 14.38941412899124
Epoch (UTC): 13 August 2020 20:35:38
Eccentricity: 0.0097043
inclination: 98.3258°
perigee height: 693 km
apogee height: 831 km
right ascension of ascending node: 196.8614°
argument of perigee: 246.1999°
revolutions per day: 14.38941412
mean anomaly at epoch: 112.8992°
orbit number at epoch: 89912

The dashed part of the orbit path shows where the satellite is in the earth's shadow,  

DLR